BAW753 LHBP-LWSK

Flight info

Callsign BAW753
Flight time 1h 11m
Altitude 31000
Route FAHAZ2L FAHAZ DCT KEROP DCT REDVA UL616 KOGAT KOGAT1A
Aircraft A319/M-SDE3FGHIRWY/LB1

Departure

Time 2026-05-08 10:55
Airport Budapest Liszt Ferenc International Airport (LHBP)

Arrival

Time 2026-05-08 12:06
Airport Skopje International Airport (LWSK)
Time Latitude Longitude Altitude Speed Heading
2026-05-08 10:13 47.43122 19.25969 456 ft 0 kts 42°
2026-05-08 10:46 47.43107 19.25950 457 ft 4 kts 39°
2026-05-08 10:46 47.43086 19.25926 457 ft 4 kts 31°
2026-05-08 10:46 47.43062 19.25910 456 ft 4 kts
2026-05-08 10:47 47.43043 19.25916 453 ft 1 kts 312°
2026-05-08 10:47 47.43040 19.25921 455 ft 0 kts 312°
2026-05-08 10:51 47.43041 19.25919 453 ft 1 kts 312°
2026-05-08 10:51 47.43049 19.25907 457 ft 2 kts 312°
2026-05-08 10:51 47.43064 19.25883 456 ft 4 kts 313°
2026-05-08 10:52 47.43086 19.25846 457 ft 6 kts 313°
2026-05-08 10:52 47.43116 19.25798 457 ft 7 kts 313°
2026-05-08 10:52 47.43154 19.25738 456 ft 9 kts 312°
2026-05-08 10:52 47.43201 19.25662 457 ft 11 kts 312°
2026-05-08 10:53 47.43260 19.25567 457 ft 14 kts 313°
2026-05-08 10:53 47.43328 19.25457 456 ft 15 kts 312°
2026-05-08 10:53 47.43302 19.25332 457 ft 16 kts 223°
2026-05-08 10:53 47.43237 19.25242 457 ft 14 kts 223°
2026-05-08 10:54 47.43173 19.25157 457 ft 11 kts 221°
2026-05-08 10:54 47.43108 19.25071 456 ft 14 kts 222°
2026-05-08 10:54 47.43097 19.24944 457 ft 15 kts 314°
2026-05-08 10:54 47.43179 19.24812 456 ft 26 kts 312°
2026-05-08 10:55 47.43438 19.24394 452 ft 84 kts 313°
2026-05-08 10:55 47.43952 19.23566 455 ft 136 kts 313°
2026-05-08 10:55 47.44683 19.22378 774 ft 154 kts 310°
2026-05-08 10:55 47.45416 19.21210 1438 ft 154 kts 312°
2026-05-08 10:56 47.46144 19.20036 2036 ft 158 kts 311°
2026-05-08 10:56 47.46941 19.18740 2366 ft 182 kts 311°
2026-05-08 10:56 47.47883 19.17207 2751 ft 208 kts 311°
2026-05-08 10:56 47.48674 19.15348 3226 ft 232 kts 289°
2026-05-08 10:57 47.48875 19.12877 3814 ft 254 kts 263°
2026-05-08 10:57 47.48270 19.10383 4733 ft 264 kts 237°
2026-05-08 10:57 47.45251 19.07184 6651 ft 277 kts 207°
2026-05-08 10:58 47.43501 19.05926 7598 ft 281 kts 207°
2026-05-08 10:58 47.41738 19.04669 8578 ft 283 kts 207°
2026-05-08 10:58 47.39954 19.03396 9531 ft 286 kts 207°
2026-05-08 10:58 47.38151 19.02097 10376 ft 293 kts 208°
2026-05-08 10:59 47.36268 19.00657 10731 ft 316 kts 210°
2026-05-08 10:59 47.34332 18.99042 11486 ft 319 kts 212°
2026-05-08 10:59 47.32424 18.97349 12297 ft 325 kts 209°
2026-05-08 10:59 47.30353 18.95912 12976 ft 333 kts 204°
2026-05-08 11:00 47.28194 18.94626 13764 ft 336 kts 202°
2026-05-08 11:00 47.26010 18.93356 14489 ft 339 kts 203°
2026-05-08 11:00 47.23816 18.92029 15191 ft 342 kts 204°
2026-05-08 11:00 47.21629 18.90635 15883 ft 345 kts 206°
2026-05-08 11:01 47.19433 18.89180 16584 ft 347 kts 206°
2026-05-08 11:01 47.17225 18.87686 17277 ft 351 kts 207°
2026-05-08 11:01 47.15005 18.86176 17966 ft 354 kts 205°
2026-05-08 11:01 47.12626 18.85126 18602 ft 361 kts 192°
2026-05-08 11:02 47.10092 18.84983 19170 ft 369 kts 177°
2026-05-08 11:02 47.05231 18.87685 20330 ft 387 kts 147°
2026-05-08 11:02 47.03034 18.90009 20899 ft 391 kts 147°
2026-05-08 11:03 47.00819 18.92350 21453 ft 395 kts 148°
2026-05-08 11:03 46.98573 18.94714 21989 ft 400 kts 148°
2026-05-08 11:03 46.96300 18.97098 22521 ft 404 kts 148°
2026-05-08 11:03 46.94000 18.99500 23046 ft 408 kts 148°
2026-05-08 11:04 46.91680 19.01917 23575 ft 412 kts 149°
2026-05-08 11:04 46.89330 19.04364 24026 ft 416 kts 149°
2026-05-08 11:04 46.86938 19.06780 24545 ft 419 kts 151°
2026-05-08 11:04 46.84495 19.09114 25113 ft 421 kts 152°
2026-05-08 11:05 46.82006 19.11413 25666 ft 424 kts 154°
2026-05-08 11:05 46.79493 19.13692 26258 ft 426 kts 154°
2026-05-08 11:05 46.76967 19.15978 26804 ft 430 kts 154°
2026-05-08 11:05 46.74425 19.18299 27275 ft 432 kts 154°
2026-05-08 11:06 46.71880 19.20642 27709 ft 435 kts 153°
2026-05-08 11:06 46.69319 19.23014 28143 ft 437 kts 153°
2026-05-08 11:06 46.66746 19.25404 28567 ft 440 kts 154°
2026-05-08 11:06 46.64159 19.27808 29003 ft 442 kts 154°
2026-05-08 11:07 46.61563 19.30217 29424 ft 445 kts 154°
2026-05-08 11:07 46.58945 19.32641 29833 ft 447 kts 154°
2026-05-08 11:07 46.56309 19.35070 30201 ft 449 kts 153°
2026-05-08 11:07 46.53666 19.37501 30592 ft 450 kts 153°
2026-05-08 11:08 46.51013 19.39939 30936 ft 452 kts 153°
2026-05-08 11:08 46.48360 19.42375 31058 ft 449 kts 153°
2026-05-08 11:08 46.45759 19.44767 31070 ft 435 kts 153°
2026-05-08 11:08 46.43252 19.47076 31067 ft 421 kts 154°
2026-05-08 11:09 46.40797 19.49335 31069 ft 415 kts 154°
2026-05-08 11:09 46.35935 19.53773 31073 ft 412 kts 154°
2026-05-08 11:10 46.31078 19.58185 31040 ft 412 kts 154°
2026-05-08 11:10 46.26232 19.62587 31072 ft 412 kts 154°
2026-05-08 11:11 46.21380 19.66989 31072 ft 411 kts 153°
2026-05-08 11:11 46.16294 19.70280 31071 ft 398 kts 172°
2026-05-08 11:12 46.10901 19.71889 31069 ft 396 kts 174°
2026-05-08 11:12 46.05496 19.73483 31054 ft 396 kts 174°
2026-05-08 11:13 46.00101 19.75081 31056 ft 396 kts 174°
2026-05-08 11:13 45.94698 19.76676 31059 ft 396 kts 174°
2026-05-08 11:14 45.89297 19.78265 31060 ft 396 kts 174°
2026-05-08 11:14 45.83897 19.79849 31050 ft 396 kts 174°
2026-05-08 11:15 45.78490 19.81430 31055 ft 396 kts 174°
2026-05-08 11:15 45.73087 19.83003 31058 ft 396 kts 174°
2026-05-08 11:16 45.67680 19.84573 31060 ft 396 kts 174°
2026-05-08 11:16 45.62279 19.86146 31050 ft 396 kts 173°
2026-05-08 11:17 45.56917 19.87712 31036 ft 396 kts 173°
2026-05-08 11:17 45.51511 19.89274 31039 ft 397 kts 173°
2026-05-08 11:18 45.46097 19.90826 31044 ft 397 kts 173°
2026-05-08 11:18 45.40680 19.92397 31041 ft 397 kts 173°
2026-05-08 11:19 45.35268 19.93966 31047 ft 397 kts 173°
2026-05-08 11:19 45.29856 19.95515 31059 ft 397 kts 173°
2026-05-08 11:20 45.24439 19.97061 31060 ft 397 kts 173°
2026-05-08 11:20 45.19031 19.98611 31056 ft 397 kts 173°
2026-05-08 11:21 45.13631 20.00158 31050 ft 396 kts 172°
2026-05-08 11:21 45.09142 20.01439 31056 ft 395 kts 172°
2026-05-08 11:22 45.03752 20.02965 31061 ft 395 kts 172°
2026-05-08 11:22 44.98362 20.04501 31056 ft 395 kts 172°
2026-05-08 11:23 44.92983 20.06034 31056 ft 394 kts 172°
2026-05-08 11:23 44.87600 20.07555 31054 ft 394 kts 172°
2026-05-08 11:24 44.82223 20.09072 31059 ft 394 kts 172°
2026-05-08 11:24 44.76851 20.10591 31051 ft 394 kts 172°
2026-05-08 11:25 44.71483 20.12107 31045 ft 393 kts 172°
2026-05-08 11:25 44.66124 20.13608 31055 ft 393 kts 172°
2026-05-08 11:26 44.60764 20.15106 31059 ft 392 kts 172°
2026-05-08 11:26 44.55416 20.16605 31058 ft 392 kts 172°
2026-05-08 11:27 44.50066 20.18100 31068 ft 391 kts 172°
2026-05-08 11:27 44.44728 20.19586 31070 ft 391 kts 172°
2026-05-08 11:28 44.39391 20.21068 31072 ft 391 kts 172°
2026-05-08 11:28 44.34054 20.22549 31054 ft 391 kts 172°
2026-05-08 11:29 44.28759 20.24018 31058 ft 390 kts 172°
2026-05-08 11:29 44.23404 20.25498 31060 ft 390 kts 172°
2026-05-08 11:30 44.18118 20.26966 31058 ft 390 kts 172°
2026-05-08 11:30 44.12804 20.28443 31050 ft 389 kts 172°
2026-05-08 11:31 44.07494 20.29892 31054 ft 389 kts 172°
2026-05-08 11:31 44.02181 20.31338 31053 ft 389 kts 172°
2026-05-08 11:32 43.96880 20.32790 31038 ft 388 kts 172°
2026-05-08 11:32 43.91575 20.34250 31034 ft 389 kts 172°
2026-05-08 11:33 43.86270 20.35707 31037 ft 389 kts 172°
2026-05-08 11:33 43.80928 20.37160 31035 ft 389 kts 172°
2026-05-08 11:34 43.75653 20.38597 31038 ft 389 kts 172°
2026-05-08 11:34 43.70330 20.40047 31034 ft 389 kts 171°
2026-05-08 11:35 43.65014 20.41492 31029 ft 390 kts 171°
2026-05-08 11:35 43.59688 20.42943 31028 ft 390 kts 171°
2026-05-08 11:36 43.54359 20.44382 31008 ft 390 kts 172°
2026-05-08 11:36 43.49024 20.45808 31014 ft 391 kts 171°
2026-05-08 11:37 43.43690 20.47244 31016 ft 391 kts 171°
2026-05-08 11:37 43.38350 20.48677 31017 ft 391 kts 171°
2026-05-08 11:38 43.33017 20.50113 31019 ft 390 kts 171°
2026-05-08 11:38 43.27683 20.51541 31022 ft 390 kts 171°
2026-05-08 11:39 43.22358 20.52954 31024 ft 390 kts 171°
2026-05-08 11:39 43.17033 20.54376 31026 ft 390 kts 171°
2026-05-08 11:40 43.11712 20.55801 31023 ft 390 kts 171°
2026-05-08 11:40 43.06390 20.57217 31028 ft 389 kts 171°
2026-05-08 11:41 43.01081 20.58747 30874 ft 391 kts 164°
2026-05-08 11:41 42.98540 20.60036 30486 ft 390 kts 160°
2026-05-08 11:41 42.96016 20.61382 30075 ft 389 kts 161°
2026-05-08 11:41 42.93503 20.62715 29622 ft 386 kts 161°
2026-05-08 11:42 42.91017 20.64031 29221 ft 382 kts 161°
2026-05-08 11:42 42.88545 20.65338 28823 ft 379 kts 161°
2026-05-08 11:42 42.86096 20.66627 28439 ft 376 kts 161°
2026-05-08 11:42 42.83662 20.67909 28061 ft 374 kts 161°
2026-05-08 11:43 42.81239 20.69183 27678 ft 371 kts 161°
2026-05-08 11:43 42.78838 20.70445 27298 ft 369 kts 161°
2026-05-08 11:43 42.76450 20.71699 26918 ft 366 kts 161°
2026-05-08 11:43 42.74081 20.72944 26531 ft 364 kts 161°
2026-05-08 11:44 42.71731 20.74179 26156 ft 361 kts 161°
2026-05-08 11:44 42.69389 20.75408 25760 ft 359 kts 161°
2026-05-08 11:44 42.67063 20.76624 25359 ft 357 kts 161°
2026-05-08 11:44 42.64748 20.77830 24964 ft 355 kts 161°
2026-05-08 11:45 42.62448 20.79030 24542 ft 354 kts 161°
2026-05-08 11:45 42.60153 20.80229 24140 ft 353 kts 161°
2026-05-08 11:45 42.57865 20.81424 23717 ft 352 kts 161°
2026-05-08 11:45 42.55590 20.82610 23255 ft 350 kts 161°
2026-05-08 11:46 42.53327 20.83790 22839 ft 347 kts 161°
2026-05-08 11:46 42.51080 20.84962 22419 ft 345 kts 161°
2026-05-08 11:46 42.48848 20.86127 22007 ft 343 kts 161°
2026-05-08 11:46 42.46628 20.87283 21591 ft 342 kts 162°
2026-05-08 11:47 42.44408 20.88436 21174 ft 341 kts 162°
2026-05-08 11:47 42.42196 20.89581 20755 ft 339 kts 162°
2026-05-08 11:47 42.40003 20.90716 20337 ft 337 kts 162°
2026-05-08 11:47 42.37818 20.91847 19936 ft 335 kts 162°
2026-05-08 11:48 42.35645 20.92973 19527 ft 334 kts 162°
2026-05-08 11:48 42.33485 20.94093 19113 ft 332 kts 162°
2026-05-08 11:48 42.31329 20.95210 18701 ft 331 kts 162°
2026-05-08 11:48 42.29181 20.96321 18280 ft 330 kts 162°
2026-05-08 11:49 42.27046 20.97425 17846 ft 327 kts 162°
2026-05-08 11:49 42.24933 20.98516 17430 ft 324 kts 162°
2026-05-08 11:49 42.22842 20.99595 17029 ft 320 kts 162°
2026-05-08 11:49 42.20777 21.00659 16629 ft 315 kts 162°
2026-05-08 11:50 42.18745 21.01705 16233 ft 311 kts 161°
2026-05-08 11:50 42.16745 21.02735 15850 ft 305 kts 161°
2026-05-08 11:50 42.14777 21.03749 15466 ft 301 kts 161°
2026-05-08 11:50 42.12889 21.04958 15085 ft 301 kts 149°
2026-05-08 11:51 42.11308 21.06784 14711 ft 302 kts 134°
2026-05-08 11:51 42.10154 21.09152 14327 ft 305 kts 118°
2026-05-08 11:51 42.09347 21.11800 13935 ft 305 kts 115°
2026-05-08 11:51 42.08547 21.14439 13490 ft 303 kts 115°
2026-05-08 11:52 42.07746 21.17052 13110 ft 301 kts 115°
2026-05-08 11:52 42.06948 21.19643 12727 ft 298 kts 115°
2026-05-08 11:52 42.06155 21.22214 12330 ft 296 kts 115°
2026-05-08 11:52 42.05499 21.24339 12009 ft 294 kts 115°
2026-05-08 11:53 42.04719 21.26870 11602 ft 293 kts 115°
2026-05-08 11:53 42.03939 21.29403 11195 ft 292 kts 114°
2026-05-08 11:53 42.03164 21.31924 10816 ft 290 kts 114°
2026-05-08 11:53 42.02397 21.34417 10513 ft 285 kts 114°
2026-05-08 11:54 42.01647 21.36847 10280 ft 278 kts 114°
2026-05-08 11:54 42.00904 21.39243 9908 ft 277 kts 114°
2026-05-08 11:54 42.00164 21.41631 9509 ft 276 kts 114°
2026-05-08 11:54 41.99426 21.44009 9099 ft 275 kts 114°
2026-05-08 11:55 41.98716 21.46303 8610 ft 275 kts 114°
2026-05-08 11:55 41.97985 21.48665 8209 ft 272 kts 114°
2026-05-08 11:55 41.97261 21.51000 7841 ft 270 kts 114°
2026-05-08 11:55 41.96539 21.53327 7487 ft 269 kts 114°
2026-05-08 11:56 41.95821 21.55636 7138 ft 267 kts 114°
2026-05-08 11:56 41.95106 21.57935 6759 ft 266 kts 114°
2026-05-08 11:56 41.94377 21.60199 6408 ft 263 kts 119°
2026-05-08 11:56 41.93292 21.62146 6052 ft 260 kts 137°
2026-05-08 11:57 41.91811 21.63506 5821 ft 260 kts 155°
2026-05-08 11:57 41.90084 21.64248 5644 ft 261 kts 165°
2026-05-08 11:57 41.88329 21.64854 5440 ft 261 kts 165°
2026-05-08 11:57 41.86561 21.65469 5246 ft 265 kts 165°
2026-05-08 11:58 41.84749 21.66103 5051 ft 269 kts 165°
2026-05-08 11:58 41.83015 21.66994 4818 ft 265 kts 150°
2026-05-08 11:58 41.81609 21.68523 4630 ft 258 kts 132°
2026-05-08 11:59 41.79711 21.72436 4268 ft 242 kts 122°
2026-05-08 11:59 41.78838 21.74332 4105 ft 235 kts 122°
2026-05-08 11:59 41.77897 21.76050 4003 ft 222 kts 140°
2026-05-08 11:59 41.76584 21.76958 4008 ft 210 kts 168°
2026-05-08 12:00 41.75145 21.76916 4017 ft 208 kts 196°
2026-05-08 12:00 41.73894 21.75966 4017 ft 210 kts 224°
2026-05-08 12:00 41.73126 21.74304 4020 ft 213 kts 252°
2026-05-08 12:00 41.73037 21.72445 4016 ft 214 kts 281°
2026-05-08 12:01 41.73654 21.70651 4018 ft 215 kts 310°
2026-05-08 12:01 41.74842 21.69480 4012 ft 210 kts 340°
2026-05-08 12:01 41.76226 21.69012 4015 ft 203 kts 348°
2026-05-08 12:01 41.77130 21.68729 4010 ft 201 kts 347°
2026-05-08 12:02 41.78933 21.68124 4019 ft 199 kts 346°
2026-05-08 12:02 41.80262 21.67665 4010 ft 192 kts 346°
2026-05-08 12:02 41.81517 21.67230 3779 ft 182 kts 346°
2026-05-08 12:02 41.82704 21.66819 3531 ft 172 kts 346°
2026-05-08 12:03 41.83458 21.66557 3371 ft 166 kts 346°
2026-05-08 12:03 41.84546 21.66180 3125 ft 156 kts 347°
2026-05-08 12:03 41.85587 21.65818 2891 ft 152 kts 348°
2026-05-08 12:03 41.86572 21.65475 2684 ft 145 kts 347°
2026-05-08 12:04 41.87535 21.65141 2459 ft 143 kts 348°
2026-05-08 12:04 41.88508 21.64803 2244 ft 144 kts 346°
2026-05-08 12:04 41.89464 21.64471 2057 ft 141 kts 347°
2026-05-08 12:04 41.90416 21.64141 1854 ft 141 kts 346°
2026-05-08 12:05 41.91361 21.63812 1640 ft 138 kts 347°
2026-05-08 12:05 41.92281 21.63492 1448 ft 136 kts 347°
2026-05-08 12:05 41.93194 21.63175 1237 ft 136 kts 347°
2026-05-08 12:05 41.94108 21.62865 1041 ft 135 kts 349°
2026-05-08 12:06 41.94998 21.62546 847 ft 134 kts 349°
2026-05-08 12:06 41.95868 21.62250 789 ft 115 kts 346°
2026-05-08 12:06 41.96510 21.62027 791 ft 71 kts 345°
2026-05-08 12:06 41.96800 21.61926 792 ft 35 kts 346°
2026-05-08 12:07 41.96969 21.61870 790 ft 10 kts 347°
2026-05-08 12:07 41.97010 21.61928 790 ft 11 kts 101°
2026-05-08 12:07 41.96971 21.62001 791 ft 8 kts 129°
2026-05-08 12:07 41.96932 21.62065 792 ft 3 kts 130°
2026-05-08 12:08 41.96928 21.62071 792 ft 2 kts 129°
2026-05-08 12:08 41.96916 21.62091 792 ft 4 kts 129°
2026-05-08 12:08 41.96890 21.62133 793 ft 8 kts 130°
2026-05-08 12:08 41.96837 21.62174 794 ft 10 kts 165°
2026-05-08 12:09 41.96763 21.62199 793 ft 11 kts 165°
2026-05-08 12:09 41.96692 21.62223 793 ft 10 kts 165°
2026-05-08 12:09 41.96619 21.62249 793 ft 12 kts 166°
2026-05-08 12:09 41.96533 21.62280 793 ft 14 kts 165°
2026-05-08 12:10 41.96436 21.62314 793 ft 15 kts 165°
2026-05-08 12:10 41.96325 21.62353 792 ft 17 kts 165°
2026-05-08 12:10 41.96203 21.62396 792 ft 19 kts 165°
2026-05-08 12:10 41.96084 21.62439 791 ft 12 kts 166°
2026-05-08 12:11 41.96018 21.62470 792 ft 8 kts 135°
2026-05-08 12:11 41.96017 21.62518 793 ft 4 kts 78°
2026-05-08 12:11 41.96022 21.62549 793 ft 3 kts 79°
2026-05-08 12:11 41.96027 21.62579 793 ft 3 kts 75°
2026-05-08 12:12 41.96032 21.62605 793 ft 2 kts 76°
2026-05-08 12:12 41.96033 21.62607 793 ft 0 kts 76°
2026-05-08 12:14 41.96033 21.62609 793 ft 0 kts 76°